Weather History for KIML - December, 2010

Change the Weather History Date:

Sunday, December 12, 2010

  Actual Average Record
Temperature  
Mean Temperature 26 °F 28 °F  
Max Temperature 45 °F 41 °F 65 °F (1921)
Min Temperature 7 °F 16 °F -24 °F (1932)
Degree Days  
Heating Degree Days 39 37  
Month to date heating degree days 361 424  
Cooling Degree Days 0 0  
Month to date cooling degree days 0 0  
Year to date cooling degree days 1172 963  
Moisture  
Dew Point 9 °F    
Average Humidity 52    
Maximum Humidity 84    
Minimum Humidity 20    
Precipitation  
Precipitation 0.00 in 0.00 in 0.62 in (1991)
Sea Level Pressure  
Sea Level Pressure 30.35 in    
Wind  
Wind Speed 8 mph (SW)    
Max Wind Speed 18 mph    
Max Gust Speed 24 mph    
Visibility 10 miles    
Events      
T = Trace of Precipitation, MM = Missing Value Source: NWS Daily Summary

Daily Weather History Graph

Daily Weather History Graph

Search for Another Location

Airport or City:

Trip Planner

Search our weather history database for the weather conditions in past years. The results will help you decide how hot, cold, wet, or windy it might be!

Date:

Astronomy

Dec. 12, 2010 Rise Set
Actual Time 7:00 AM MST 4:19 PM MST
Civil Twilight 6:29 AM MST 4:50 PM MST
Nautical Twilight 5:55 AM MST 5:24 PM MST
Astronomical Twilight 5:22 AM MST 5:58 PM MST
Moon 11:15 AM MST (12/12) 11:24 PM MST (12/12)
Length of Visible Light 10h 20m
Length of Day
9h 19m
Waxing Crescent, 43% of the Moon is Illuminated
Dec 12
Waxing Crescent
Dec 13
First Quarter
Dec 21
Full
Dec 27
Last Quarter
Jan 4
New

Hourly Weather History & Observations

Time (MST) Temp. Windchill Dew Point Humidity Pressure Visibility Wind Dir Wind Speed Gust Speed Precip Events Conditions
12:53 AM 12.9 °F 6.9 °F 8.1 °F 81% 30.45 in 10.0 mi WNW 3.5 mph - N/A   Clear
1:53 AM 12.9 °F 2.6 °F 8.1 °F 81% 30.45 in 10.0 mi NNW 6.9 mph - N/A   Clear
2:53 AM 9.0 °F - 3.9 °F 80% 30.46 in 10.0 mi Calm Calm - N/A   Clear
3:53 AM 9.0 °F -0.9 °F 3.9 °F 80% 30.46 in 10.0 mi West 5.8 mph - N/A   Clear
4:53 AM 10.0 °F -0.9 °F 5.0 °F 80% 30.45 in 10.0 mi West 6.9 mph - N/A   Clear
5:53 AM 10.0 °F 0.4 °F 5.0 °F 80% 30.47 in 10.0 mi WSW 5.8 mph - N/A   Clear
6:53 AM 10.0 °F 3.6 °F 5.0 °F 80% 30.45 in 10.0 mi WSW 3.5 mph - N/A   Clear
7:53 AM 15.1 °F 7.7 °F 9.0 °F 77% 30.45 in 10.0 mi WSW 4.6 mph - N/A   Clear
8:53 AM 23.0 °F 17.0 °F 14.0 °F 68% 30.43 in 10.0 mi West 4.6 mph - N/A   Clear
9:53 AM 30.0 °F 26.5 °F 16.0 °F 56% 30.41 in 10.0 mi West 3.5 mph - N/A   Clear
10:53 AM 36.0 °F 33.3 °F 18.0 °F 48% 30.38 in 10.0 mi Variable 3.5 mph - N/A   Clear
11:53 AM 42.1 °F 37.1 °F 5.0 °F 22% 30.32 in 10.0 mi SW 8.1 mph - N/A   Clear
12:53 PM 43.0 °F 38.2 °F 6.1 °F 22% 30.28 in 10.0 mi SW 8.1 mph - N/A   Clear
1:53 PM 44.1 °F 39.0 °F 6.1 °F 21% 30.26 in 10.0 mi SW 9.2 mph - N/A   Clear
2:53 PM 44.1 °F 40.1 °F 9.0 °F 24% 30.25 in 10.0 mi SSW 6.9 mph - N/A   Partly Cloudy
3:53 PM 39.0 °F 34.8 °F 9.0 °F 29% 30.26 in 10.0 mi South 5.8 mph - N/A   Scattered Clouds
4:53 PM 32.0 °F 26.4 °F 10.9 °F 42% 30.27 in 10.0 mi SSE 5.8 mph - N/A   Mostly Cloudy
5:53 PM 34.0 °F 25.0 °F 12.9 °F 42% 30.26 in 10.0 mi SE 12.7 mph - N/A   Mostly Cloudy
6:53 PM 27.0 °F 15.6 °F 12.9 °F 56% 30.27 in 10.0 mi SE 13.8 mph - N/A   Partly Cloudy
7:53 PM 24.1 °F 12.0 °F 10.9 °F 57% 30.25 in 10.0 mi SE 13.8 mph - N/A   Partly Cloudy
11:53 PM 21.0 °F 8.1 °F 8.1 °F 57% 30.14 in 10.0 mi SE 13.8 mph - N/A   Overcast